| time (UTC) | temp F | wind direction | speed MPH | gust MPH | rain 1hr in | rain 24hr in | rain mn in | humidity % | barometer mb |
| 20260902130218 | 72 | 232 | 6.0 | 11.0 | 0.00 | 0.00 | 0.00 | 48 | 973.8 |
| 20260902125803 | 72 | 318 | 4.0 | 11.0 | 0.00 | 0.00 | 0.00 | 46 | 973.9 |
| 20260902125333 | 72 | 318 | 4.0 | 9.0 | 0.00 | 0.00 | 0.00 | 46 | 973.8 |
| 20260902124913 | 72 | 318 | 4.0 | 9.0 | 0.00 | 0.00 | 0.00 | 46 | 973.9 |
| 20260902124425 | 73 | 282 | 6.0 | 5.0 | 0.00 | 0.00 | 0.00 | 46 | 973.8 |
| 20260902123953 | 72 | 282 | 6.0 | 11.0 | 0.00 | 0.00 | 0.00 | 48 | 973.9 |
| 20260902123528 | 71 | 133 | 6.0 | 5.0 | 0.00 | 0.00 | 0.00 | 48 | 973.8 |
| 20260902123103 | 71 | 133 | 9.0 | 5.0 | 0.00 | 0.00 | 0.00 | 48 | 973.8 |
| 20260902122623 | 71 | 155 | 5.0 | 5.0 | 0.00 | 0.00 | 0.00 | 50 | 973.9 |
| 20260902122143 | 71 | 328 | 7.0 | 5.0 | 0.00 | 0.00 | 0.00 | 47 | 974.2 |
| 20260902121648 | 71 | 117 | 7.0 | 5.0 | 0.00 | 0.00 | 0.00 | 47 | 974.2 |
| 20260902121215 | 72 | 95 | 2.0 | 9.0 | 0.00 | 0.00 | 0.00 | 47 | 974.0 |
| 20260902120743 | 74 | 148 | 2.0 | 7.0 | 0.00 | 0.00 | 0.00 | 47 | 974.1 |
| 20260902120313 | 73 | 148 | 5.0 | 7.0 | 0.00 | 0.00 | 0.00 | 47 | 974.3 |
| 20260902115843 | 73 | 148 | 4.0 | 7.0 | 0.00 | 0.00 | 0.00 | 49 | 974.2 |
| 20260902115423 | 73 | 340 | 5.0 | 22.0 | 0.00 | 0.00 | 0.00 | 48 | 974.3 |
| 20260902115013 | 72 | 259 | 1.0 | 22.0 | 0.00 | 0.00 | 0.00 | 48 | 974.3 |
| 20260902114523 | 72 | 136 | 8.0 | 13.0 | 0.00 | 0.00 | 0.00 | 48 | 974.4 |
| 20260902114055 | 72 | 143 | 8.0 | 13.0 | 0.00 | 0.00 | 0.00 | 48 | 974.4 |
| 20260902113633 | 72 | 121 | 4.0 | 11.0 | 0.00 | 0.00 | 0.00 | 48 | 974.6 |
| 20260902113153 | 72 | 121 | 4.0 | 9.0 | 0.00 | 0.00 | 0.00 | 49 | 974.5 |
| 20260902112713 | 72 | 271 | 7.0 | 9.0 | 0.00 | 0.00 | 0.00 | 48 | 974.8 |
| 20260902112247 | 72 | 200 | 4.0 | 13.0 | 0.00 | 0.00 | 0.00 | 49 | 974.8 |
| 20260902111823 | 71 | 150 | 4.0 | 5.0 | 0.00 | 0.00 | 0.00 | 51 | 974.6 |
| 20260902111358 | 70 | 162 | 4.0 | 7.0 | 0.00 | 0.00 | 0.00 | 51 | 974.5 |
| 20260902110908 | 70 | 260 | 4.0 | 18.0 | 0.00 | 0.00 | 0.00 | 51 | 974.5 |
| 20260902110453 | 70 | 229 | 4.0 | 18.0 | 0.00 | 0.00 | 0.00 | 51 | 974.5 |
| 20260902110018 | 71 | 126 | 4.0 | 13.0 | 0.00 | 0.00 | 0.00 | 49 | 974.7 |
| 20260902105555 | 71 | 126 | 4.0 | 11.0 | 0.00 | 0.00 | 0.00 | 49 | 974.6 |
| 20260902105128 | 71 | 126 | 5.0 | 14.0 | 0.00 | 0.00 | 0.00 | 49 | 974.9 |
| 20260902104708 | 72 | 104 | 8.0 | 5.0 | 0.00 | 0.00 | 0.00 | 54 | 974.9 |
| 20260902104223 | 70 | 104 | 9.0 | 22.0 | 0.00 | 0.00 | 0.00 | 54 | 974.8 |
| 20260902103738 | 70 | 344 | 6.0 | 14.0 | 0.00 | 0.00 | 0.00 | 54 | 975.0 |
| 20260902103248 | 71 | 165 | 6.0 | 9.0 | 0.00 | 0.00 | 0.00 | 54 | 975.0 |
| 20260902102808 | 69 | 165 | 6.0 | 9.0 | 0.00 | 0.00 | 0.00 | 54 | 975.1 |
| 20260902102338 | 69 | 209 | 6.0 | 9.0 | 0.00 | 0.00 | 0.00 | 54 | 975.1 |
| 20260902101928 | 69 | 167 | 6.0 | 11.0 | 0.00 | 0.00 | 0.00 | 54 | 974.9 |
| 20260902101522 | 70 | 167 | 6.0 | 11.0 | 0.00 | 0.00 | 0.00 | 54 | 974.8 |
| 20260902101053 | 70 | 167 | 2.0 | 5.0 | 0.00 | 0.00 | 0.00 | 55 | 975.0 |
| 20260902100558 | 68 | 196 | 2.0 | 7.0 | 0.00 | 0.00 | 0.00 | 55 | 974.9 |
| 20260902100148 | 68 | 294 | 2.0 | 13.0 | 0.00 | 0.00 | 0.00 | 57 | 975.1 |
| 20260902095743 | 68 | 294 | 10.0 | 13.0 | 0.00 | 0.00 | 0.00 | 57 | 975.1 |
| 20260902095323 | 68 | 121 | 5.0 | 3.0 | 0.00 | 0.00 | 0.00 | 57 | 975.1 |
| 20260902094853 | 68 | 177 | 5.0 | 3.0 | 0.00 | 0.00 | 0.00 | 57 | 975.1 |
| 20260902094428 | 68 | 208 | 1.0 | 5.0 | 0.00 | 0.00 | 0.00 | 57 | 975.1 |
| 20260902094013 | 69 | 274 | 5.0 | 11.0 | 0.00 | 0.00 | 0.00 | 57 | 974.8 |
| 20260902093558 | 69 | 358 | 4.0 | 5.0 | 0.00 | 0.00 | 0.00 | 57 | 975.0 |
| 20260902093058 | 69 | 307 | 3.0 | 5.0 | 0.00 | 0.00 | 0.00 | 57 | 974.9 |
| 20260902092615 | 69 | 307 | 2.0 | 5.0 | 0.00 | 0.00 | 0.00 | 59 | 974.9 |
| 20260902092138 | 66 | 187 | 2.0 | 5.0 | 0.00 | 0.00 | 0.00 | 59 | 975.1 |
| 20260902091723 | 66 | 98 | 1.0 | 3.0 | 0.00 | 0.00 | 0.00 | 59 | 975.0 |
| 20260902091259 | 66 | 98 | 2.0 | 3.0 | 0.00 | 0.00 | 0.00 | 59 | 975.1 |
| 20260902090823 | 66 | 98 | 2.0 | 5.0 | 0.00 | 0.00 | 0.00 | 58 | 975.1 |
| 20260902090347 | 66 | 78 | 3.0 | 9.0 | 0.00 | 0.00 | 0.00 | 59 | 975.2 |
| 20260902085938 | 67 | 101 | 3.0 | 1.0 | 0.00 | 0.00 | 0.00 | 60 | 975.0 |
| 20260902085453 | 66 | 29 | 1.0 | 1.0 | 0.00 | 0.00 | 0.00 | 60 | 975.2 |
| 20260902085023 | 66 | 113 | 5.0 | 1.0 | 0.00 | 0.00 | 0.00 | 60 | 975.1 |
| 20260902084538 | 66 | 114 | 2.0 | 3.0 | 0.00 | 0.00 | 0.00 | 64 | 975.1 |
| 20260902084118 | 67 | 115 | 1.0 | 5.0 | 0.00 | 0.00 | 0.00 | 64 | 975.2 |
| 20260902083643 | 67 | 111 | 1.0 | 3.0 | 0.00 | 0.00 | 0.00 | 64 | 975.2 |
| 20260902083203 | 67 | 124 | 0.0 | 3.0 | 0.00 | 0.00 | 0.00 | 64 | 975.1 |
| 20260902082748 | 66 | 166 | 1.0 | 1.0 | 0.00 | 0.00 | 0.00 | 70 | 975.0 |
| 20260902082313 | 66 | 104 | 0.0 | 1.0 | 0.00 | 0.00 | 0.00 | 70 | 975.1 |
| 20260902081846 | 64 | 104 | 0.0 | 1.0 | 0.00 | 0.00 | 0.00 | 70 | 975.2 |
| 20260902081413 | 64 | 104 | 1.0 | 3.0 | 0.00 | 0.00 | 0.00 | 70 | 975.2 |
| 20260902080953 | 64 | 104 | 1.0 | 0.0 | 0.00 | 0.00 | 0.00 | 70 | 975.2 |
| 20260902080508 | 64 | 104 | 1.0 | 3.0 | 0.00 | 0.00 | 0.00 | 70 | 975.4 |
| 20260902080055 | 64 | 104 | 2.0 | 3.0 | 0.00 | 0.00 | 0.00 | 70 | 975.2 |
| 20260902075628 | 64 | 104 | 2.0 | 3.0 | 0.00 | 0.00 | 0.00 | 70 | 975.2 |
| 20260902075148 | 62 | 104 | 0.0 | 1.0 | 0.00 | 0.00 | 0.00 | 70 | 975.2 |
| 20260902074713 | 62 | 104 | 0.0 | 1.0 | 0.00 | 0.00 | 0.00 | 70 | 975.2 |
| 20260902074303 | 60 | 104 | 1.0 | 1.0 | 0.00 | 0.00 | 0.00 | 70 | 975.4 |
| 20260902073828 | 60 | 104 | 1.0 | 1.0 | 0.00 | 0.00 | 0.00 | 74 | 975.5 |
| 20260902073418 | 61 | 104 | 1.0 | 1.0 | 0.00 | 0.00 | 0.00 | 74 | 975.2 |
| 20260902072933 | 61 | 104 | 1.0 | 1.0 | 0.00 | 0.00 | 0.00 | 74 | 975.0 |
| 20260902072523 | 60 | 104 | 0.0 | 3.0 | 0.00 | 0.00 | 0.00 | 74 | 975.1 |
| 20260902072115 | 60 | 104 | 0.0 | 0.0 | 0.00 | 0.00 | 0.00 | 77 | 974.9 |
| 20260902071633 | 60 | 92 | 1.0 | 0.0 | 0.00 | 0.00 | 0.00 | 79 | 975.1 |
| 20260902071203 | 60 | 92 | 0.0 | 1.0 | 0.00 | 0.00 | 0.00 | 79 | 975.3 |
| 20260902070702 | 59 | 92 | 0.0 | 1.0 | 0.00 | 0.00 | 0.00 | 79 | 975.0 |
| 20260902070228 | 59 | 92 | 0.0 | 1.0 | 0.00 | 0.00 | 0.00 | 79 | 974.8 |
| 20260902065828 | 59 | 92 | 1.0 | 1.0 | 0.00 | 0.00 | 0.00 | 79 | 975.0 |
| 20260902065403 | 59 | 92 | 0.0 | 0.0 | 0.00 | 0.00 | 0.00 | 79 | 974.9 |
| 20260902064948 | 58 | 92 | 0.0 | 0.0 | 0.00 | 0.00 | 0.00 | 79 | 975.0 |
| 20260902064518 | 56 | 92 | 0.0 | 0.0 | 0.00 | 0.00 | 0.00 | 79 | 974.9 |
| 20260902064048 | 56 | 92 | 0.0 | 0.0 | 0.00 | 0.00 | 0.00 | 79 | 974.9 |
| 20260902063623 | 56 | 92 | 0.0 | 1.0 | 0.00 | 0.00 | 0.00 | 79 | 975.0 |
| 20260902063143 | 56 | 92 | 0.0 | 1.0 | 0.00 | 0.00 | 0.00 | 79 | 975.1 |
| 20260902062718 | 56 | 46 | 0.0 | 1.0 | 0.00 | 0.00 | 0.00 | 79 | 974.9 |
| 20260902062315 | 56 | 46 | 0.0 | 1.0 | 0.00 | 0.00 | 0.00 | 79 | 975.1 |
| 20260902061843 | 54 | 46 | 0.0 | 1.0 | 0.00 | 0.00 | 0.00 | 79 | 974.9 |
| 20260902061428 | 54 | 46 | 0.0 | 1.0 | 0.00 | 0.00 | 0.00 | 80 | 975.1 |
| 20260902060945 | 54 | 46 | 0.0 | 1.0 | 0.00 | 0.00 | 0.00 | 88 | 975.0 |
| 20260902060548 | 54 | 46 | 1.0 | 1.0 | 0.00 | 0.00 | 0.00 | 88 | 975.0 |
| 20260902060118 | 54 | 14 | 1.0 | 0.0 | 0.00 | 0.00 | 0.00 | 88 | 974.8 |
| 20260902055653 | 52 | 331 | 1.0 | 0.0 | 0.00 | 0.00 | 0.00 | 88 | 975.1 |
| 20260902055213 | 52 | 331 | 1.0 | 0.0 | 0.00 | 0.00 | 0.00 | 88 | 975.0 |
| 20260902054728 | 52 | 331 | 0.0 | 1.0 | 0.00 | 0.00 | 0.00 | 88 | 975.2 |
| 20260902054308 | 52 | 331 | 0.0 | 1.0 | 0.00 | 0.00 | 0.00 | 88 | 975.0 |
| 20260902053858 | 52 | 331 | 0.0 | 1.0 | 0.00 | 0.00 | 0.00 | 88 | 975.1 |
| 20260902053443 | 52 | 331 | 0.0 | 1.0 | 0.00 | 0.00 | 0.00 | 88 | 975.0 |
| 20260902053013 | 52 | 331 | 0.0 | 1.0 | 0.00 | 0.00 | 0.00 | 88 | 974.7 |
| 20260902052548 | 52 | 331 | 0.0 | 1.0 | 0.00 | 0.00 | 0.00 | 88 | 975.0 |
| 20260902052133 | 52 | 331 | 0.0 | 0.0 | 0.00 | 0.00 | 0.00 | 88 | 974.8 |
| 20260902051708 | 52 | 331 | 0.0 | 0.0 | 0.00 | 0.00 | 0.00 | 88 | 974.9 |
| 20260902051253 | 52 | 331 | 0.0 | 0.0 | 0.00 | 0.00 | 0.00 | 88 | 975.0 |
| 20260902050848 | 50 | 332 | 0.0 | 0.0 | 0.00 | 0.00 | 0.00 | 88 | 974.9 |
| 20260902050403 | 50 | 332 | 0.0 | 0.0 | 0.00 | 0.00 | 0.00 | 91 | 974.9 |
| 20260902045943 | 50 | 332 | 0.0 | 1.0 | 0.00 | 0.00 | 0.00 | 91 | 975.0 |
| 20260902045523 | 50 | 332 | 1.0 | 1.0 | 0.00 | 0.00 | 0.00 | 91 | 975.0 |
| 20260902045048 | 50 | 332 | 1.0 | 1.0 | 0.00 | 0.00 | 0.00 | 91 | 974.8 |
| 20260902044633 | 50 | 332 | 1.0 | 1.0 | 0.00 | 0.00 | 0.00 | 91 | 974.9 |
| 20260902044203 | 50 | 332 | 0.0 | 1.0 | 0.00 | 0.00 | 0.00 | 91 | 975.0 |
| 20260902043753 | 50 | 332 | 0.0 | 1.0 | 0.00 | 0.00 | 0.00 | 91 | 974.7 |
| 20260902043255 | 50 | 332 | 0.0 | 1.0 | 0.00 | 0.00 | 0.00 | 92 | 974.9 |
| 20260902042818 | 50 | 332 | 0.0 | 1.0 | 0.00 | 0.00 | 0.00 | 92 | 974.8 |
| 20260902042343 | 50 | 332 | 0.0 | 1.0 | 0.00 | 0.00 | 0.00 | 92 | 974.9 |
| 20260902041933 | 50 | 332 | 0.0 | 1.0 | 0.00 | 0.00 | 0.00 | 92 | 974.7 |
| 20260902041503 | 50 | 332 | 0.0 | 1.0 | 0.00 | 0.00 | 0.00 | 94 | 974.7 |
| 20260902041033 | 50 | 332 | 0.0 | 1.0 | 0.00 | 0.00 | 0.00 | 94 | 974.7 |
| 20260902040558 | 50 | 332 | 0.0 | 0.0 | 0.00 | 0.00 | 0.00 | 94 | 974.7 |
| 20260902040148 | 50 | 332 | 0.0 | 0.0 | 0.00 | 0.00 | 0.00 | 95 | 975.0 |
| 20260902035703 | 50 | 332 | 0.0 | 0.0 | 0.00 | 0.00 | 0.00 | 95 | 974.9 |
| 20260902035228 | 50 | 332 | 0.0 | 0.0 | 0.00 | 0.00 | 0.00 | 95 | 974.7 |
| 20260902034758 | 50 | 332 | 0.0 | 0.0 | 0.00 | 0.00 | 0.00 | 95 | 974.9 |
| 20260902034258 | 50 | 332 | 0.0 | 1.0 | 0.00 | 0.00 | 0.00 | 95 | 974.9 |
| 20260902033823 | 50 | 332 | 1.0 | 1.0 | 0.00 | 0.00 | 0.00 | 95 | 974.8 |
| 20260902033328 | 50 | 332 | 1.0 | 1.0 | 0.00 | 0.00 | 0.00 | 95 | 974.8 |
| 20260902032833 | 50 | 332 | 0.0 | 0.0 | 0.00 | 0.00 | 0.00 | 94 | 974.9 |
| 20260902032403 | 50 | 332 | 0.0 | 0.0 | 0.00 | 0.00 | 0.00 | 94 | 974.7 |
| 20260902031953 | 51 | 332 | 0.0 | 0.0 | 0.00 | 0.00 | 0.00 | 94 | 974.7 |
| 20260902031505 | 51 | 332 | 0.0 | 0.0 | 0.00 | 0.00 | 0.00 | 94 | 974.8 |
| 20260902031053 | 51 | 332 | 0.0 | 1.0 | 0.00 | 0.00 | 0.00 | 94 | 974.8 |
| 20260902030555 | 51 | 332 | 1.0 | 1.0 | 0.00 | 0.00 | 0.00 | 94 | 974.9 |
| 20260902030128 | 51 | 332 | 2.0 | 1.0 | 0.00 | 0.00 | 0.00 | 93 | 974.7 |
| 20260902025653 | 51 | 332 | 0.0 | 1.0 | 0.00 | 0.00 | 0.00 | 93 | 974.8 |
| 20260902025243 | 51 | 332 | 0.0 | 1.0 | 0.00 | 0.00 | 0.00 | 93 | 974.6 |
| 20260902024828 | 51 | 332 | 0.0 | 1.0 | 0.00 | 0.00 | 0.00 | 93 | 974.8 |
| 20260902024413 | 51 | 332 | 0.0 | 1.0 | 0.00 | 0.00 | 0.00 | 93 | 974.9 |
| 20260902023923 | 51 | 332 | 0.0 | 1.0 | 0.00 | 0.00 | 0.00 | 93 | 975.0 |
| 20260902023435 | 51 | 332 | 0.0 | 1.0 | 0.00 | 0.00 | 0.00 | 93 | 974.9 |
| 20260902022947 | 51 | 330 | 1.0 | 0.0 | 0.00 | 0.00 | 0.00 | 93 | 975.0 |
| 20260902022523 | 51 | 330 | 2.0 | 1.0 | 0.00 | 0.00 | 0.00 | 93 | 974.9 |
| 20260902022043 | 51 | 330 | 1.0 | 1.0 | 0.00 | 0.00 | 0.00 | 93 | 974.7 |
| 20260902021613 | 51 | 330 | 1.0 | 1.0 | 0.00 | 0.00 | 0.00 | 93 | 974.9 |
| 20260902021128 | 51 | 330 | 1.0 | 1.0 | 0.00 | 0.00 | 0.00 | 93 | 974.9 |
| 20260902020653 | 51 | 330 | 1.0 | 1.0 | 0.00 | 0.00 | 0.00 | 93 | 974.9 |
| 20260902020243 | 51 | 330 | 0.0 | 0.0 | 0.00 | 0.00 | 0.00 | 90 | 974.7 |
| 20260902015805 | 51 | 330 | 0.0 | 0.0 | 0.00 | 0.00 | 0.00 | 90 | 974.9 |
| 20260902015403 | 51 | 330 | 0.0 | 0.0 | 0.00 | 0.00 | 0.00 | 90 | 975.0 |
| 20260902014923 | 51 | 330 | 0.0 | 0.0 | 0.00 | 0.00 | 0.00 | 90 | 974.9 |
| 20260902014453 | 53 | 330 | 1.0 | 0.0 | 0.00 | 0.00 | 0.00 | 90 | 975.0 |
| 20260902014015 | 53 | 330 | 0.0 | 0.0 | 0.00 | 0.00 | 0.00 | 90 | 975.1 |
| 20260902013608 | 53 | 330 | 0.0 | 0.0 | 0.00 | 0.00 | 0.00 | 90 | 975.0 |
| 20260902013138 | 53 | 330 | 0.0 | 1.0 | 0.00 | 0.00 | 0.00 | 90 | 975.1 |
| 20260902012713 | 53 | 330 | 0.0 | 1.0 | 0.00 | 0.00 | 0.00 | 90 | 975.0 |
| 20260902012308 | 53 | 330 | 1.0 | 0.0 | 0.00 | 0.00 | 0.00 | 90 | 975.2 |
| 20260902011818 | 53 | 330 | 1.0 | 0.0 | 0.00 | 0.00 | 0.00 | 90 | 975.0 |
| 20260902011343 | 53 | 330 | 1.0 | 0.0 | 0.00 | 0.00 | 0.00 | 90 | 975.2 |
| 20260902010923 | 53 | 330 | 1.0 | 0.0 | 0.00 | 0.00 | 0.00 | 90 | 975.1 |
| 20260902010505 | 53 | 330 | 1.0 | 0.0 | 0.00 | 0.00 | 0.00 | 89 | 975.1 |
| 20260902010055 | 53 | 330 | 1.0 | 0.0 | 0.00 | 0.00 | 0.00 | 90 | 975.2 |
| 20260902005628 | 53 | 330 | 1.0 | 0.0 | 0.00 | 0.00 | 0.00 | 90 | 975.2 |
| 20260902005223 | 53 | 330 | 1.0 | 0.0 | 0.00 | 0.00 | 0.00 | 90 | 975.1 |
| 20260902004808 | 53 | 330 | 1.0 | 0.0 | 0.00 | 0.00 | 0.00 | 89 | 975.3 |
| 20260902004343 | 53 | 330 | 1.0 | 0.0 | 0.00 | 0.00 | 0.00 | 89 | 975.0 |
| 20260902003918 | 53 | 330 | 1.0 | 0.0 | 0.00 | 0.00 | 0.00 | 89 | 975.1 |
| 20260902003423 | 53 | 330 | 1.0 | 0.0 | 0.00 | 0.00 | 0.00 | 89 | 975.2 |
| 20260902003003 | 53 | 330 | 1.0 | 0.0 | 0.00 | 0.00 | 0.00 | 87 | 975.1 |
| 20260902002523 | 53 | 330 | 1.0 | 1.0 | 0.00 | 0.00 | 0.00 | 87 | 975.2 |
| 20260902002053 | 53 | 330 | 1.0 | 0.0 | 0.00 | 0.00 | 0.00 | 87 | 975.3 |
| 20260902001608 | 53 | 331 | 0.0 | 1.0 | 0.00 | 0.00 | 0.00 | 87 | 975.0 |
| 20260902001138 | 53 | 331 | 0.0 | 1.0 | 0.00 | 0.00 | 0.00 | 87 | 975.3 |
| 20260902000728 | 53 | 331 | 0.0 | 0.0 | 0.00 | 0.00 | 0.00 | 87 | 975.2 |
| 20260902000234 | 53 | 331 | 0.0 | 0.0 | 0.00 | 0.00 | 0.00 | 87 | 975.2 |
| 20260901235808 | 53 | 331 | 1.0 | 0.0 | 0.00 | 0.00 | 0.00 | 87 | 975.4 |
| 20260901235335 | 55 | 331 | 1.0 | 0.0 | 0.00 | 0.00 | 0.00 | 87 | 975.2 |
| 20260901234908 | 55 | 331 | 2.0 | 0.0 | 0.00 | 0.00 | 0.00 | 87 | 975.1 |
| 20260901234408 | 55 | 331 | 1.0 | 0.0 | 0.00 | 0.00 | 0.00 | 87 | 975.1 |
| 20260901233953 | 55 | 331 | 0.0 | 0.0 | 0.00 | 0.00 | 0.00 | 87 | 974.9 |
| 20260901233538 | 55 | 331 | 0.0 | 0.0 | 0.00 | 0.00 | 0.00 | 87 | 975.0 |
| 20260901233118 | 55 | 331 | 0.0 | 0.0 | 0.00 | 0.00 | 0.00 | 87 | 974.9 |
| 20260901232633 | 55 | 331 | 1.0 | 0.0 | 0.00 | 0.00 | 0.00 | 87 | 975.1 |
| 20260901232218 | 55 | 331 | 0.0 | 0.0 | 0.00 | 0.00 | 0.00 | 87 | 975.1 |
| 20260901231758 | 55 | 331 | 1.0 | 1.0 | 0.00 | 0.00 | 0.00 | 87 | 975.0 |
| 20260901231343 | 55 | 330 | 0.0 | 1.0 | 0.00 | 0.00 | 0.00 | 87 | 975.1 |
| 20260901230935 | 55 | 330 | 0.0 | 0.0 | 0.00 | 0.00 | 0.00 | 87 | 975.1 |
| 20260901230453 | 55 | 330 | 1.0 | 1.0 | 0.00 | 0.00 | 0.00 | 87 | 975.2 |
| 20260901230013 | 55 | 318 | 1.0 | 1.0 | 0.00 | 0.00 | 0.00 | 87 | 975.1 |
| 20260901225533 | 55 | 318 | 2.0 | 1.0 | 0.00 | 0.00 | 0.00 | 87 | 975.2 |
| 20260901225058 | 55 | 318 | 1.0 | 1.0 | 0.00 | 0.00 | 0.00 | 87 | 975.2 |
| 20260901224633 | 55 | 318 | 0.0 | 1.0 | 0.00 | 0.00 | 0.00 | 87 | 975.2 |
| 20260901224148 | 55 | 318 | 0.0 | 0.0 | 0.00 | 0.00 | 0.00 | 87 | 975.2 |
| 20260901223733 | 55 | 318 | 0.0 | 0.0 | 0.00 | 0.00 | 0.00 | 87 | 975.1 |
| 20260901223303 | 55 | 318 | 0.0 | 0.0 | 0.00 | 0.00 | 0.00 | 87 | 975.0 |
| 20260901222833 | 55 | 318 | 0.0 | 0.0 | 0.00 | 0.00 | 0.00 | 87 | 975.1 |
| 20260901222338 | 59 | 318 | 0.0 | 0.0 | 0.00 | 0.00 | 0.00 | 87 | 975.1 |
| 20260901221858 | 59 | 318 | 0.0 | 0.0 | 0.00 | 0.00 | 0.00 | 87 | 975.0 |
| 20260901221438 | 59 | 318 | 0.0 | 0.0 | 0.00 | 0.00 | 0.00 | 87 | 975.0 |
| 20260901220948 | 59 | 318 | 0.0 | 0.0 | 0.00 | 0.00 | 0.00 | 86 | 975.1 |
| 20260901220508 | 59 | 318 | 0.0 | 0.0 | 0.00 | 0.00 | 0.00 | 86 | 975.0 |
| 20260901220038 | 59 | 318 | 0.0 | 0.0 | 0.00 | 0.00 | 0.00 | 85 | 975.1 |
| 20260901215603 | 59 | 318 | 0.0 | 0.0 | 0.00 | 0.00 | 0.00 | 80 | 974.9 |
| 20260901215133 | 59 | 318 | 0.0 | 0.0 | 0.00 | 0.00 | 0.00 | 80 | 975.3 |
| 20260901214718 | 59 | 318 | 0.0 | 0.0 | 0.00 | 0.00 | 0.00 | 80 | 975.0 |
| 20260901214238 | 59 | 318 | 1.0 | 1.0 | 0.00 | 0.00 | 0.00 | 80 | 974.9 |
| 20260901213758 | 59 | 164 | 0.0 | 1.0 | 0.00 | 0.00 | 0.00 | 80 | 975.0 |
| 20260901213308 | 59 | 164 | 0.0 | 0.0 | 0.00 | 0.00 | 0.00 | 80 | 974.9 |
| 20260901212843 | 59 | 164 | 0.0 | 0.0 | 0.00 | 0.00 | 0.00 | 80 | 975.0 |
| 20260901212413 | 59 | 164 | 1.0 | 1.0 | 0.00 | 0.00 | 0.00 | 80 | 975.0 |
| 20260901211948 | 59 | 164 | 0.0 | 1.0 | 0.00 | 0.00 | 0.00 | 80 | 974.9 |
| 20260901211518 | 59 | 164 | 0.0 | 1.0 | 0.00 | 0.00 | 0.00 | 80 | 974.9 |
| 20260901211048 | 59 | 164 | 0.0 | 1.0 | 0.00 | 0.00 | 0.00 | 80 | 975.0 |
| 20260901210623 | 59 | 164 | 1.0 | 1.0 | 0.00 | 0.00 | 0.00 | 80 | 974.8 |
| 20260901210213 | 59 | 164 | 1.0 | 3.0 | 0.00 | 0.00 | 0.00 | 80 | 974.6 |
| 20260901205733 | 59 | 164 | 0.0 | 3.0 | 0.00 | 0.00 | 0.00 | 80 | 974.7 |
| 20260901205306 | 59 | 168 | 0.0 | 0.0 | 0.00 | 0.00 | 0.00 | 80 | 974.9 |
| 20260901204848 | 59 | 168 | 0.0 | 0.0 | 0.00 | 0.00 | 0.00 | 80 | 975.0 |
| 20260901204418 | 59 | 168 | 0.0 | 0.0 | 0.00 | 0.00 | 0.00 | 80 | 974.7 |
| 20260901203935 | 59 | 168 | 0.0 | 0.0 | 0.00 | 0.00 | 0.00 | 80 | 974.9 |
| 20260901203508 | 59 | 168 | 0.0 | 0.0 | 0.00 | 0.00 | 0.00 | 80 | 974.8 |
| 20260901203033 | 59 | 168 | 1.0 | 1.0 | 0.00 | 0.00 | 0.00 | 80 | 974.8 |
| 20260901202618 | 59 | 168 | 0.0 | 1.0 | 0.00 | 0.00 | 0.00 | 80 | 974.9 |
| 20260901202135 | 59 | 168 | 0.0 | 1.0 | 0.00 | 0.00 | 0.00 | 73 | 974.5 |
| 20260901201653 | 59 | 220 | 0.0 | 1.0 | 0.00 | 0.00 | 0.00 | 73 | 974.7 |
| 20260901201223 | 59 | 220 | 0.0 | 0.0 | 0.00 | 0.00 | 0.00 | 73 | 974.7 |
| 20260901200803 | 59 | 220 | 0.0 | 1.0 | 0.00 | 0.00 | 0.00 | 73 | 974.7 |
| 20260901200338 | 59 | 220 | 0.0 | 1.0 | 0.00 | 0.00 | 0.00 | 73 | 974.7 |
| 20260901195928 | 62 | 220 | 0.0 | 1.0 | 0.00 | 0.00 | 0.00 | 73 | 974.7 |
| 20260901195458 | 62 | 220 | 1.0 | 1.0 | 0.00 | 0.00 | 0.00 | 73 | 974.5 |
| 20260901195043 | 62 | 220 | 1.0 | 1.0 | 0.00 | 0.00 | 0.00 | 73 | 974.8 |
| 20260901194608 | 62 | 220 | 1.0 | 1.0 | 0.00 | 0.00 | 0.00 | 73 | 974.6 |
| 20260901194125 | 62 | 235 | 1.0 | 1.0 | 0.00 | 0.00 | 0.00 | 73 | 974.5 |
| 20260901193708 | 62 | 235 | 0.0 | 1.0 | 0.00 | 0.00 | 0.00 | 73 | 974.7 |
| 20260901193223 | 62 | 235 | 0.0 | 1.0 | 0.00 | 0.00 | 0.00 | 73 | 974.7 |
| 20260901192758 | 62 | 235 | 2.0 | 1.0 | 0.00 | 0.00 | 0.00 | 73 | 974.6 |
| 20260901192318 | 62 | 174 | 0.0 | 0.0 | 0.00 | 0.00 | 0.00 | 62 | 974.6 |
| 20260901191855 | 62 | 174 | 0.0 | 0.0 | 0.00 | 0.00 | 0.00 | 62 | 974.5 |
| 20260901191453 | 62 | 174 | 0.0 | 0.0 | 0.00 | 0.00 | 0.00 | 62 | 974.4 |
| 20260901191038 | 62 | 174 | 0.0 | 1.0 | 0.00 | 0.00 | 0.00 | 62 | 974.6 |
| 20260901190613 | 64 | 174 | 0.0 | 1.0 | 0.00 | 0.00 | 0.00 | 62 | 974.5 |
| 20260901190133 | 64 | 174 | 0.0 | 1.0 | 0.00 | 0.00 | 0.00 | 62 | 974.4 |
| 20260901185658 | 64 | 174 | 0.0 | 0.0 | 0.00 | 0.00 | 0.00 | 62 | 974.4 |
| 20260901185238 | 64 | 174 | 0.0 | 0.0 | 0.00 | 0.00 | 0.00 | 62 | 974.3 |
| 20260901184815 | 64 | 174 | 0.0 | 0.0 | 0.00 | 0.00 | 0.00 | 62 | 974.2 |
| 20260901184403 | 64 | 174 | 0.0 | 0.0 | 0.00 | 0.00 | 0.00 | 62 | 974.4 |
| 20260901183943 | 64 | 174 | 1.0 | 0.0 | 0.00 | 0.00 | 0.00 | 62 | 974.3 |
| 20260901183458 | 64 | 174 | 2.0 | 0.0 | 0.00 | 0.00 | 0.00 | 62 | 974.4 |
| 20260901183003 | 65 | 174 | 0.0 | 0.0 | 0.00 | 0.00 | 0.00 | 62 | 974.1 |
| 20260901182523 | 65 | 174 | 1.0 | 0.0 | 0.00 | 0.00 | 0.00 | 62 | 974.0 |
| 20260901182113 | 65 | 174 | 1.0 | 0.0 | 0.00 | 0.00 | 0.00 | 62 | 974.3 |
| 20260901181708 | 69 | 174 | 1.0 | 0.0 | 0.00 | 0.00 | 0.00 | 62 | 974.0 |
| 20260901181235 | 69 | 174 | 1.0 | 1.0 | 0.00 | 0.00 | 0.00 | 62 | 974.3 |
| 20260901180808 | 69 | 174 | 1.0 | 1.0 | 0.00 | 0.00 | 0.00 | 59 | 974.0 |
| 20260901180343 | 69 | 174 | 1.0 | 1.0 | 0.00 | 0.00 | 0.00 | 59 | 974.1 |
| 20260901175923 | 69 | 175 | 1.0 | 1.0 | 0.00 | 0.00 | 0.00 | 49 | 973.8 |
| 20260901175455 | 69 | 175 | 1.0 | 0.0 | 0.00 | 0.00 | 0.00 | 49 | 973.9 |
| 20260901175028 | 69 | 307 | 2.0 | 1.0 | 0.00 | 0.00 | 0.00 | 49 | 973.7 |
| 20260901174559 | 69 | 307 | 2.0 | 1.0 | 0.00 | 0.00 | 0.00 | 49 | 973.7 |
| 20260901174115 | 69 | 303 | 2.0 | 1.0 | 0.00 | 0.00 | 0.00 | 49 | 973.8 |
| 20260901173648 | 69 | 303 | 2.0 | 3.0 | 0.00 | 0.00 | 0.00 | 49 | 973.8 |
| 20260901173223 | 69 | 303 | 0.0 | 3.0 | 0.00 | 0.00 | 0.00 | 49 | 973.9 |
| 20260901172808 | 69 | 135 | 0.0 | 3.0 | 0.00 | 0.00 | 0.00 | 49 | 973.7 |
| 20260901172343 | 70 | 135 | 1.0 | 5.0 | 0.00 | 0.00 | 0.00 | 49 | 973.8 |
| 20260901171913 | 71 | 101 | 1.0 | 5.0 | 0.00 | 0.00 | 0.00 | 49 | 973.9 |
| 20260901171448 | 71 | 101 | 1.0 | 3.0 | 0.00 | 0.00 | 0.00 | 49 | 973.7 |
| 20260901171013 | 71 | 79 | 1.0 | 1.0 | 0.00 | 0.00 | 0.00 | 49 | 973.8 |
| 20260901170543 | 71 | 79 | 3.0 | 1.0 | 0.00 | 0.00 | 0.00 | 49 | 973.8 |
| 20260901170059 | 71 | 144 | 3.0 | 3.0 | 0.00 | 0.00 | 0.00 | 47 | 973.7 |
| 20260901165618 | 70 | 181 | 3.0 | 7.0 | 0.00 | 0.00 | 0.00 | 47 | 973.8 |
| 20260901165128 | 70 | 181 | 0.0 | 7.0 | 0.00 | 0.00 | 0.00 | 47 | 973.7 |
| 20260901164658 | 71 | 286 | 2.0 | 7.0 | 0.00 | 0.00 | 0.00 | 47 | 973.7 |
| 20260901164228 | 71 | 286 | 3.0 | 9.0 | 0.00 | 0.00 | 0.00 | 47 | 973.9 |
| 20260901163803 | 71 | 171 | 1.0 | 9.0 | 0.00 | 0.00 | 0.00 | 47 | 974.1 |
| 20260901163358 | 71 | 171 | 4.0 | 9.0 | 0.00 | 0.00 | 0.00 | 47 | 974.0 |
| 20260901162923 | 71 | 124 | 4.0 | 5.0 | 0.00 | 0.00 | 0.00 | 47 | 974.0 |
| 20260901162503 | 71 | 124 | 2.0 | 3.0 | 0.00 | 0.00 | 0.00 | 47 | 974.2 |
| 20260901162028 | 71 | 132 | 6.0 | 5.0 | 0.00 | 0.00 | 0.00 | 47 | 974.0 |
| 20260901161538 | 71 | 108 | 6.0 | 5.0 | 0.00 | 0.00 | 0.00 | 47 | 974.1 |
| 20260901161115 | 71 | 121 | 3.0 | 5.0 | 0.00 | 0.00 | 0.00 | 47 | 973.9 |
| 20260901160638 | 71 | 106 | 5.0 | 9.0 | 0.00 | 0.00 | 0.00 | 47 | 974.1 |
| 20260901160203 | 71 | 123 | 4.0 | 5.0 | 0.00 | 0.00 | 0.00 | 45 | 974.2 |
| 20260901155733 | 71 | 138 | 1.0 | 11.0 | 0.00 | 0.00 | 0.00 | 45 | 974.0 |
| 20260901155253 | 71 | 136 | 2.0 | 7.0 | 0.00 | 0.00 | 0.00 | 45 | 974.0 |
| 20260901154818 | 72 | 139 | 4.0 | 5.0 | 0.00 | 0.00 | 0.00 | 45 | 974.1 |
| 20260901154343 | 72 | 171 | 7.0 | 5.0 | 0.00 | 0.00 | 0.00 | 45 | 974.2 |
| 20260901153855 | 72 | 314 | 7.0 | 5.0 | 0.00 | 0.00 | 0.00 | 45 | 974.1 |
| 20260901153418 | 72 | 344 | 7.0 | 9.0 | 0.00 | 0.00 | 0.00 | 45 | 974.0 |
| 20260901152955 | 72 | 344 | 7.0 | 11.0 | 0.00 | 0.00 | 0.00 | 45 | 974.1 |
| 20260901152553 | 72 | 344 | 4.0 | 9.0 | 0.00 | 0.00 | 0.00 | 45 | 974.0 |
| 20260901152113 | 71 | 326 | 6.0 | 7.0 | 0.00 | 0.00 | 0.00 | 45 | 974.0 |
| 20260901151628 | 71 | 184 | 6.0 | 9.0 | 0.00 | 0.00 | 0.00 | 45 | 974.1 |
| 20260901151139 | 71 | 267 | 0.0 | 9.0 | 0.00 | 0.00 | 0.00 | 45 | 974.1 |
| 20260901150653 | 71 | 150 | 6.0 | 5.0 | 0.00 | 0.00 | 0.00 | 45 | 974.0 |
| 20260901150248 | 71 | 277 | 0.0 | 0.0 | 0.00 | 0.00 | 0.00 | 100 | 974.1 |
| 20260901145835 | 69 | 288 | 2.0 | 5.0 | 0.00 | 0.00 | 0.00 | 100 | 973.8 |
| 20260901145348 | 70 | 326 | 6.0 | 9.0 | 0.00 | 0.00 | 0.00 | 100 | 974.1 |
| 20260901144933 | 70 | 354 | 0.0 | 0.0 | 0.00 | 0.00 | 0.00 | 100 | 974.0 |
| 20260901144513 | 70 | 330 | 1.0 | 11.0 | 0.00 | 0.00 | 0.00 | 48 | 974.0 |
| 20260901144048 | 71 | 330 | 11.0 | 9.0 | 0.00 | 0.00 | 0.00 | 47 | 974.1 |
| 20260901143613 | 71 | 253 | 1.0 | 13.0 | 0.00 | 0.00 | 0.00 | 52 | 974.3 |
| 20260901143135 | 71 | 343 | 10.0 | 7.0 | 0.00 | 0.00 | 0.00 | 52 | 974.0 |
| 20260901142718 | 71 | 299 | 4.0 | 14.0 | 0.00 | 0.00 | 0.00 | 52 | 974.0 |
| 20260901142308 | 71 | 334 | 4.0 | 11.0 | 0.00 | 0.00 | 0.00 | 52 | 974.1 |
| 20260901141853 | 71 | 337 | 4.0 | 14.0 | 0.00 | 0.00 | 0.00 | 52 | 974.2 |
| 20260901141423 | 69 | 337 | 4.0 | 7.0 | 0.00 | 0.00 | 0.00 | 52 | 974.2 |
| 20260901140954 | 68 | 306 | 1.0 | 11.0 | 0.00 | 0.00 | 0.00 | 52 | 974.2 |
| 20260901140528 | 68 | 169 | 1.0 | 9.0 | 0.00 | 0.00 | 0.00 | 52 | 974.5 |
| 20260901140058 | 70 | 169 | 1.0 | 14.0 | 0.00 | 0.00 | 0.00 | 51 | 974.3 |
| 20260901135653 | 70 | 305 | 1.0 | 18.0 | 0.00 | 0.00 | 0.00 | 51 | 974.4 |
| 20260901135223 | 70 | 287 | 3.0 | 7.0 | 0.00 | 0.00 | 0.00 | 51 | 974.3 |
| 20260901134753 | 70 | 230 | 3.0 | 14.0 | 0.00 | 0.00 | 0.00 | 51 | 974.3 |
| 20260901134323 | 69 | 1 | 3.0 | 7.0 | 0.00 | 0.00 | 0.00 | 51 | 974.3 |
| 20260901133853 | 69 | 343 | 5.0 | 9.0 | 0.00 | 0.00 | 0.00 | 50 | 974.4 |
| 20260901133426 | 69 | 262 | 5.0 | 11.0 | 0.00 | 0.00 | 0.00 | 51 | 974.5 |
| 20260901133015 | 69 | 343 | 1.0 | 11.0 | 0.00 | 0.00 | 0.00 | 54 | 974.5 |
| 20260901132547 | 71 | 127 | 7.0 | 9.0 | 0.00 | 0.00 | 0.00 | 54 | 974.5 |
| 20260901132148 | 69 | 127 | 4.0 | 7.0 | 0.00 | 0.00 | 0.00 | 54 | 974.6 |
| 20260901131728 | 67 | 199 | 2.0 | 7.0 | 0.00 | 0.00 | 0.00 | 54 | 974.7 |
| 20260901131233 | 67 | 57 | 1.0 | 3.0 | 0.00 | 0.00 | 0.00 | 54 | 974.5 |
| 20260901130818 | 67 | 298 | 4.0 | 5.0 | 0.00 | 0.00 | 0.00 | 54 | 974.6 |